STARLINK-30497, 58011

Orbit data source: Space-Track

STARLINK-30497, 58011 is a payload satellite owned by SpaceX/Seattle (US) in LEO that was launched on Thu, 05 Oct 2023 UTC via an FALCON 9 launch vehicle from the Air Force Eastern Test Range (AFETR). Payload-class satellites include a variety of spacecraft equipped with specific instruments for various scientific and technological missions. These include communications satellites like Starlink; space stations such as the ISS; scientific satellites like the Hubble; Earth observation satellites from companies like Planet Labs, Umbra, and HawkEye 360; GPS; miniature CubeSats for education and research; and military/defense satellites.

Loading next visibility...
Identifier
58011, 2023-153W
Orbit
LEO
Country
Flag of USUS
Related business
Manufacturer
SpaceX/Seattle
Mission
Operational Commercial Communications
Bus & Motor
STARLINK V2M, Unknown motor
Mass
730 kg wet, ~700 kg dry
Launch date (UTC)
2023-10-05 (3 years ago)
Launch vehicle
FALCON 9
Launch site
Air Force Eastern Test Range (AFETR)
Object type
Payload
Rocket body
Debris
Shape & HBR
Box + 2 Pan, 17.7 m
Radar Cross Section
33.884 m², Large (>1 m²)

Expand to show TLE details & history
Last TLE update: 2 days ago

TLE from 2 days ago
0 STARLINK-30497
1 58011U 23153W   26171.36942117  .00000423  00000-0  24898-4 0  9993
2 58011  43.0033 206.8425 0001766 291.2866  68.7797 15.27577967150603
Epoch: 2026-06-20T08:51Z
TLE epoch observation values (Epoch: 2026-06-20T08:51:57.989Z)
Latitude
-0°
Longitude
165.26584°
Altitude
482.393 km
Speed
7.626 km/s
True Right ascension
13h 47m 22s
True Declination
0° 00' 00"
Sunlit
Object was in full shadow at epoch
Visualization orbit readout
Latitude
Unknown
Longitude
Unknown
Altitude
Unknown
Speed
Unknown
Apparent Right ascension
Unknown
Apparent Declination
Unknown
Sunlit
N/A
Visualization observer readout
Local Sidereal Time
21:32:52
Azimuth
Unknown
Elevation
Unknown
Doppler factor
Unknown
Orbital elements
Apogee altitude
486.212 km
Perigee altitude
483.788 km
Semi-major axis
6,863.137 km
Eccentricity
0.00018
Inclination
43.0033°
RAAN
206.8425°
Arg. of periapsis
291.2866°
True anomaly
68.79857°
Mean anomaly
68.7797°
Eccentric anomaly
68.78913°
Mean motion
3.81733 °/min
Orbital period
94.31 mins
BSTAR
0.000024898
Loading maneuver chart data...
Computing Atmospheric mass density...
Loading historical data...
Loading historical data...
Loading historical data...
Loading historical data...
Loading historical data...
Loading historical data...
Loading historical data...

Documentation

Showing up to 5 results
|